Temperature
22 21 20 22 27 31 31 31 31 30 31 30 29 28 29 29 29 27 22 22 21 21 20 22 21 20 20 20 20 20 20 19 19 19 19 19 19 19 19 19 19 19 19 19 19 19 19 19 19
22 21 21 26 31 32 31 30 30 30 29 28 28 28 28 28 25 23 21 21 21 20 20 21 21 20 20 20 20 20 20 19 19 19 20 20 20 19 19 19 19 19 19 19 19 19 19 19 19
22 21 25 31 32 31 31 30 30 29 28 28 28 28 28 27 24 22 21 21 21 20 20 21 21 20 20 20 20 20 20 20 20 20 20 20 20 19 19 19 19 19 19 19 19 19 19 19 19
22 24 28 31 32 31 31 31 30 30 29 28 28 29 26 23 22 22 21 21 21 20 19 21 21 21 20 20 20 20 20 20 20 20 20 20 19 19 19 19 19 19 19 19 19 19 19 19 19
24 28 31 32 32 31 31 31 30 31 30 29 28 29 27 22 22 21 21 21 21 20 19 20 21 21 21 20 20 20 20 20 20 20 20 19 19 19 19 19 19 19 19 19 19 19 19 19 19
28 30 31 32 31 31 32 30 30 31 30 28 28 29 27 22 22 22 21 21 21 20 20 19 21 21 20 20 20 20 20 20 20 20 20 19 19 19 19 19 19 19 19 19 19 18 18 18 18
29 31 31 32 31 31 31 30 31 31 30 29 29 29 28 23 22 22 21 21 21 21 20 19 20 21 20 20 20 20 20 20 20 20 20 19 19 19 19 19 19 19 19 19 19 18 18 18 18
28 31 31 32 31 31 31 31 31 30 30 28 28 29 29 24 22 22 21 21 21 21 20 19 20 20 20 20 20 20 20 20 20 20 19 19 19 19 19 19 19 18 18 18 18 18 18 18 18
27 30 31 32 31 31 31 31 31 29 29 27 28 28 27 24 22 22 21 21 21 20 20 19 20 19 19 19 19 19 20 19 19 19 19 19 18 18 18 18 18 19 18 18 18 18 18 18 18
28 30 31 30 31 31 31 31 31 31 30 29 29 27 24 24 23 22 22 21 20 20 19 19 19 18 18 19 18 18 18 18 19 18 18 18 18 18 18 18 19 19 19 18 18 18 18 18 17
29 30 30 30 30 30 31 31 31 31 32 32 30 29 25 23 22 22 22 21 20 20 19 18 18 18 18 18 19 19 19 19 18 18 18 18 18 18 18 18 18 18 18 18 18 18 18 18 18
28 29 28 29 29 30 30 31 31 31 32 31 30 28 26 24 23 22 22 21 20 20 19 19 18 18 18 18 18 18 19 19 19 19 18 18 18 18 18 18 18 18 18 18 18 18 18 18 18
28 29 28 28 29 30 30 31 31 32 31 29 28 27 25 24 23 22 22 21 20 19 19 18 18 18 19 19 19 18 19 19 19 19 18 18 18 18 18 18 18 18 18 18 18 18 18 18 18
28 28 29 29 29 29 30 31 31 31 29 28 27 26 25 24 23 22 21 20 19 19 19 19 19 19 19 19 19 19 18 19 19 19 18 18 18 18 18 18 18 18 18 18 18 18 18 18 18
27 28 30 30 30 30 30 31 31 28 28 28 26 25 24 23 22 21 19 18 19 19 19 19 19 19 19 19 19 19 18 19 19 19 18 18 18 18 18 18 18 18 18 18 18 18 18 18 18
28 29 29 30 30 29 30 31 29 27 27 27 25 23 22 20 20 19 19 18 19 19 19 19 19 19 19 19 19 19 19 19 19 18 18 18 18 18 18 18 18 18 18 18 18 18 18 18 18
28 29 29 29 29 29 29 29 27 26 26 25 24 23 21 19 19 18 18 19 19 19 19 19 19 19 19 19 19 19 18 18 18 18 18 18 18 18 18 18 18 18 18 18 18 18 18 18 18
28 28 28 28 28 28 28 27 26 25 25 24 22 21 20 19 18 18 18 19 19 19 19 19 19 19 19 19 19 18 18 18 18 18 18 18 18 18 18 18 18 18 18 18 18 18 18 18 18
27 27 27 27 27 27 27 26 25 24 24 22 21 20 19 18 18 18 18 18 19 19 19 19 20 20 20 20 20 19 19 18 18 18 19 19 19 19 18 17 17 17 17 18 18 18 17 17 17
27 27 27 27 27 27 27 27 24 23 22 21 20 19 19 19 18 18 18 18 18 18 18 18 19 19 19 20 21 21 20 20 19 18 19 19 20 19 19 18 17 17 17 17 17 17 17 17 17
26 26 26 26 27 27 27 27 25 23 22 21 20 20 19 19 19 19 19 18 18 18 17 17 17 17 18 19 19 20 19 19 19 18 18 19 19 19 18 17 16 16 16 17 17 17 16 17 16
26 26 25 25 26 26 27 26 28 25 24 23 22 21 21 20 20 20 20 19 19 18 18 17 17 17 17 17 17 18 18 18 19 18 18 18 18 17 16 16 15 15 16 16 16 16 16 16 16
26 26 25 25 25 25 26 26 27 25 24 24 23 22 21 21 20 20 20 19 19 19 18 18 17 17 17 17 17 17 17 17 17 16 17 17 16 15 15 15 15 15 15 15 16 16 16 16 15
26 25 25 25 26 25 26 25 26 26 25 24 23 22 22 21 20 20 19 19 18 18 18 17 17 16 16 16 16 16 16 16 15 15 15 15 15 14 14 14 14 14 15 15 15 15 15 15 15
25 25 24 25 25 25 25 24 25 24 24 24 23 23 22 21 20 19 19 18 17 17 17 16 16 16 15 15 15 15 15 15 15 15 14 14 14 14 14 14 14 15 15 15 15 15 15 15 15
25 24 23 22 23 24 25 24 25 24 23 23 22 22 22 21 20 19 18 17 16 16 16 16 15 15 15 14 14 15 15 15 14 14 14 14 14 14 14 14 14 15 15 15 15 15 15 15 15
25 24 24 23 23 23 24 24 25 24 23 23 23 22 22 21 20 19 18 17 16 15 15 15 15 15 14 14 14 14 14 14 14 14 14 13 14 14 14 14 14 14 14 14 14 14 14 14 14
24 25 23 23 22 22 23 24 24 24 24 24 23 23 22 21 20 19 17 16 15 14 14 14 14 14 14 14 14 13 13 13 13 13 13 13 13 13 13 13 13 13 13 13 13 13 14 14 14
23 23 23 23 22 21 22 24 25 24 24 23 23 23 22 20 19 18 17 16 15 14 13 13 13 13 13 13 13 12 12 12 12 12 12 12 13 13 13 12 12 12 12 12 12 13 13 13 13
24 24 23 22 21 22 21 22 25 24 24 23 23 22 21 19 18 17 16 15 14 14 13 13 13 13 13 12 12 11 11 11 11 11 12 12 12 12 12 12 12 12 12 12 12 12 12 12 12
Wind_Speed
7 6 5 5 6 4 3 4 3 2 3 3 5 3 2 2 3 3 5 15 17 18 21 22 19 18 17 16 16 18 18 17 17 16 15 14 13 11 10 9 8 8 7 7 7 7 7 7 7
3 4 5 5 5 2 3 2 2 3 3 3 4 3 2 1 2 4 9 14 17 18 20 21 21 18 17 16 16 17 17 16 15 14 13 13 12 12 11 10 9 8 7 6 5 6 5 5 6
5 7 5 5 3 5 5 3 4 6 4 2 2 1 3 3 2 5 10 17 17 16 18 19 21 19 17 17 16 16 16 15 14 13 12 12 12 11 11 10 8 7 7 6 5 5 4 4 4
5 5 5 4 5 7 3 3 6 5 2 1 2 0 2 4 2 7 14 17 17 16 17 20 21 19 18 17 16 15 14 14 12 11 11 10 10 10 10 10 9 7 6 6 6 5 4 3 2
5 5 6 2 4 6 4 3 5 2 1 0 2 2 1 4 6 11 15 17 17 17 16 20 21 19 18 17 16 15 15 14 13 12 11 10 9 9 9 9 8 8 7 5 6 6 6 5 4
5 5 7 1 4 3 1 1 5 5 3 2 2 2 3 7 9 13 15 16 17 16 16 19 20 18 17 17 16 16 15 14 13 12 11 10 9 8 8 7 7 7 8 7 6 5 5 5 5
7 7 7 3 1 3 5 2 4 5 5 4 2 1 3 9 10 13 14 15 15 16 15 17 20 19 18 17 17 17 16 15 13 13 12 11 10 9 9 9 8 7 7 8 8 7 7 7 7
5 6 8 4 2 3 5 4 3 5 4 1 4 4 1 11 12 13 14 15 15 15 15 15 17 18 18 18 18 17 15 14 13 12 12 10 10 10 9 11 12 9 9 9 9 9 9 9 10
4 8 9 3 2 2 7 8 2 2 3 5 6 4 3 14 16 15 14 15 14 14 14 14 15 15 15 15 16 16 14 14 12 12 12 11 12 13 12 13 9 9 10 10 11 11 11 11 14
6 11 6 3 4 6 8 8 4 3 6 8 8 5 5 16 18 17 17 17 16 15 14 12 12 12 12 11 12 13 14 14 14 12 12 12 11 9 9 7 8 10 11 12 13 14 14 15 13
6 8 5 5 6 9 9 8 3 6 7 7 7 7 10 16 18 18 17 16 16 15 14 12 10 9 10 8 9 9 9 9 12 12 11 11 9 9 9 8 9 12 13 12 12 13 12 11 9
5 5 6 9 10 10 10 8 6 6 8 5 4 4 12 16 18 17 16 14 14 14 13 11 11 10 10 9 8 8 7 6 8 10 12 11 8 8 8 7 8 8 8 8 9 8 9 10 11
6 6 6 9 11 10 10 7 6 7 7 6 4 5 12 13 13 13 12 12 11 12 12 11 10 10 9 9 8 8 9 9 10 10 11 11 9 9 9 8 8 10 9 8 9 9 8 9 10
3 7 9 9 8 6 8 8 8 6 9 6 3 4 6 8 9 10 10 10 11 12 13 12 11 10 9 9 9 8 10 10 12 11 13 13 12 10 9 10 9 10 10 9 8 9 8 8 8
5 8 8 5 5 3 6 12 2 11 9 6 3 2 2 4 7 8 10 10 11 11 11 11 11 11 12 12 12 10 11 12 11 11 13 14 15 13 11 11 10 10 11 10 9 10 9 9 9
6 8 7 3 2 1 7 11 7 11 7 4 3 4 5 5 4 5 7 9 9 9 10 10 9 10 12 12 12 11 11 11 11 11 12 14 16 16 12 12 12 11 11 10 9 10 10 9 9
7 6 4 3 2 3 5 4 9 10 6 4 3 4 6 6 5 4 5 7 7 6 7 8 8 9 9 10 11 11 10 10 11 11 11 11 14 16 14 13 12 12 10 10 10 10 9 9 9
3 4 5 4 3 5 3 3 5 8 6 4 4 4 4 5 5 5 5 5 6 7 7 7 7 7 7 8 9 9 10 9 8 9 8 10 11 15 15 12 15 14 11 9 9 10 9 9 9
1 3 3 1 4 7 6 5 3 4 3 3 2 2 2 3 4 3 3 4 6 7 8 8 8 7 7 6 8 8 8 8 8 8 9 10 10 13 12 14 14 12 11 10 9 8 10 10 9
1 2 3 3 4 8 10 9 3 1 2 3 2 1 1 2 3 4 4 5 7 8 8 9 9 8 8 7 7 6 6 7 8 9 11 13 13 13 12 13 12 11 10 10 9 8 9 10 8
3 6 7 11 13 12 12 14 10 6 4 3 3 3 3 2 1 1 2 4 7 8 10 10 10 10 9 9 7 6 7 7 9 11 12 14 13 12 9 8 7 7 8 8 8 8 9 9 8
6 4 9 12 14 13 9 14 10 8 6 4 4 5 6 5 3 4 6 7 8 9 9 10 10 10 9 10 10 11 10 11 11 11 12 10 9 9 9 8 6 6 7 7 8 7 6 7 7
7 7 11 13 14 15 12 11 6 7 7 5 4 4 3 3 4 6 9 10 12 12 12 12 12 12 11 11 11 12 13 13 12 12 12 9 6 6 7 8 8 6 6 6 7 6 6 5 6
5 10 12 11 11 13 6 7 6 3 3 4 2 0 2 3 5 8 10 11 12 14 14 14 14 14 13 13 13 13 16 16 15 14 11 8 6 6 8 8 8 7 6 7 8 7 6 5 5
6 11 9 7 7 6 2 7 4 4 2 1 2 5 6 7 8 10 12 12 13 15 15 15 16 16 15 14 14 15 17 18 17 14 11 9 7 7 9 9 9 8 8 7 7 7 6 5 5
5 8 7 7 9 12 9 8 2 3 3 4 6 8 10 11 11 11 12 11 12 14 15 15 16 18 17 15 14 14 15 12 9 9 7 7 6 7 9 10 9 9 9 8 6 5 4 4 4
6 5 8 10 12 11 7 5 6 5 7 8 8 10 11 11 11 11 11 11 11 12 12 13 15 16 16 14 10 8 5 4 4 5 5 5 5 6 7 7 8 8 7 6 5 4 4 4 2
5 6 5 6 7 10 10 10 6 6 7 6 8 11 11 10 10 10 10 10 9 8 7 9 12 12 11 8 3 2 3 2 2 4 5 5 6 6 8 8 8 7 5 4 4 5 3 2 2
6 7 7 7 8 8 10 8 3 6 10 9 12 14 11 10 9 9 9 9 6 4 3 6 10 12 11 10 9 9 7 6 3 2 3 4 4 5 7 8 7 6 5 4 3 3 3 3 4
11 12 10 10 12 13 15 13 7 9 12 13 17 16 12 9 8 8 9 7 5 4 2 3 6 9 10 11 11 8 6 6 3 2 1 2 4 4 5 6 6 6 6 4 4 5 5 6 6
Wind_Direction
201 215 235 241 247 237 58 72 67 86 107 110 151 179 268 284 298 40 114 152 151 150 149 158 164 165 161 153 145 140 140 143 146 147 149 151 153 152 150 147 143 136 129 122 120 118 118 119 121
216 223 234 248 284 336 85 77 102 61 85 133 165 211 276 281 33 103 148 155 158 154 153 161 162 167 164 159 154 148 145 146 148 151 155 157 157 156 154 151 148 144 139 132 126 127 130 132 138
224 237 269 276 336 19 53 97 103 104 131 177 173 262 323 4 106 152 155 157 162 156 155 155 162 168 168 165 162 157 152 152 154 156 161 166 168 165 159 153 152 154 153 150 144 139 141 148 160
236 240 256 275 35 45 35 130 133 127 127 170 248 267 64 33 129 146 150 158 161 159 161 157 168 170 171 170 168 164 159 159 162 166 170 172 169 168 167 163 163 168 172 172 174 165 166 176 173
247 269 264 250 57 50 61 139 181 230 344 56 235 316 58 103 125 139 152 159 164 164 166 162 173 173 173 174 174 172 169 169 172 176 178 178 174 173 174 176 175 179 186 183 173 179 179 189 199
252 259 264 249 62 36 46 170 239 257 268 265 265 300 116 135 148 153 158 166 168 166 170 163 172 178 179 180 182 182 180 180 180 182 185 184 184 186 188 192 196 195 192 189 187 190 198 211 222
272 272 271 294 12 83 41 349 276 280 256 247 234 263 141 163 164 163 164 171 173 170 171 167 175 182 187 188 190 190 188 188 190 192 192 191 193 200 201 202 212 215 211 207 203 204 214 231 237
274 269 253 242 233 107 37 344 324 271 243 206 202 238 100 169 166 168 169 176 180 176 176 174 178 181 188 192 195 196 195 196 198 201 203 202 204 212 212 213 210 222 230 229 225 223 227 237 242
249 252 247 241 243 64 8 345 348 266 212 209 221 239 53 152 164 172 177 180 183 183 182 182 181 182 192 195 187 196 201 204 207 212 212 216 223 217 208 221 190 219 236 239 240 240 240 243 239
234 247 253 339 309 330 342 337 341 237 230 234 231 195 149 160 169 179 183 183 183 186 187 186 192 183 196 198 186 203 209 205 215 222 215 221 234 241 241 153 193 231 239 241 240 245 248 245 247
236 256 283 280 294 316 320 323 304 282 260 247 247 211 177 176 181 185 187 188 185 187 189 186 196 188 201 207 208 213 218 218 221 227 226 233 242 237 239 235 213 221 230 241 229 233 244 248 248
241 254 277 285 297 301 310 314 302 279 292 341 310 231 186 189 190 189 188 190 188 192 191 193 190 197 208 220 222 229 227 221 228 222 228 231 233 246 249 248 253 244 237 242 254 252 255 262 267
234 262 271 275 280 291 292 285 298 285 326 346 320 204 195 195 189 187 187 190 192 195 196 199 203 207 210 220 237 236 237 234 228 234 226 237 241 241 242 243 248 255 250 241 239 252 260 267 266
282 282 272 269 272 267 269 274 269 326 351 344 311 227 206 192 184 180 180 182 188 198 203 203 208 216 223 225 231 242 248 240 249 238 235 230 239 244 247 243 239 245 249 254 261 260 262 261 262
274 273 259 235 258 257 272 254 292 348 336 338 1 31 112 154 172 181 180 187 194 197 199 203 211 219 224 228 231 236 244 246 244 246 242 238 241 240 241 246 243 241 242 243 248 255 257 258 256
246 246 237 159 274 277 263 248 35 352 343 0 46 88 103 103 141 175 180 189 200 199 196 203 214 221 225 229 232 238 243 250 252 254 253 248 252 252 248 248 247 244 245 245 245 253 259 260 264
219 231 241 193 57 326 275 277 9 4 27 58 72 102 109 109 112 132 173 190 198 202 206 210 217 228 231 233 236 245 250 253 254 253 257 266 266 263 260 260 259 255 251 253 256 253 261 268 270
231 251 238 242 24 325 300 315 355 10 33 64 91 116 136 142 136 143 159 172 182 187 190 196 201 210 221 231 237 242 246 246 247 250 257 271 278 279 274 264 261 259 256 254 257 266 262 266 269
283 266 269 301 347 310 295 291 321 343 15 46 59 97 145 160 169 182 195 212 217 214 215 215 220 208 206 211 220 227 230 232 236 236 237 248 261 271 271 267 265 260 259 257 256 260 264 264 272
172 277 295 264 305 305 294 280 210 253 33 21 30 76 162 201 205 220 249 263 268 265 262 261 254 252 243 230 218 217 217 225 234 246 248 247 249 253 255 252 253 256 253 248 248 252 273 280 278
284 312 315 309 306 275 276 272 197 176 150 101 84 95 104 103 85 316 302 299 294 289 285 283 281 272 265 258 250 238 227 227 227 238 245 245 245 249 237 224 225 237 246 247 251 258 262 274 272
294 326 307 302 298 296 284 288 258 181 170 130 116 104 93 79 47 13 351 340 327 317 306 297 289 279 269 260 256 253 249 249 246 242 241 238 233 228 210 195 194 220 245 249 250 249 256 259 267
316 314 294 289 286 285 269 268 269 176 204 159 132 108 80 42 358 345 338 331 327 324 319 312 305 300 294 282 271 266 263 261 256 244 236 220 201 200 195 178 177 193 226 240 242 232 243 250 266
305 291 275 260 264 266 274 277 271 196 197 164 148 144 312 317 325 327 325 323 320 318 314 310 306 300 293 282 270 259 256 253 246 232 218 202 192 191 193 183 178 189 207 217 225 231 232 248 266
296 318 307 279 261 286 69 279 281 93 156 210 296 305 301 302 309 316 320 319 315 312 310 306 300 293 285 272 258 248 245 243 236 225 214 204 198 196 195 191 186 188 195 211 221 223 235 237 254
326 319 324 309 303 309 289 268 286 148 206 236 266 288 296 297 297 304 311 309 307 309 311 310 303 295 286 274 261 251 248 244 232 219 209 205 202 186 179 188 185 182 186 199 204 208 212 226 243
295 308 328 294 285 283 273 266 265 204 220 238 266 288 295 300 301 299 301 299 304 312 322 327 319 305 294 282 273 259 246 221 191 175 186 186 167 155 161 166 167 166 172 179 187 190 205 220 247
289 307 291 295 299 294 286 277 263 210 240 267 301 309 307 307 301 299 297 298 307 319 338 355 354 340 327 308 299 44 55 75 123 164 159 146 149 156 156 153 147 143 147 161 189 178 161 137 70
229 243 264 283 283 282 288 297 358 271 284 284 309 314 304 301 304 303 297 296 292 299 351 19 22 20 23 40 54 46 29 13 15 50 103 124 144 152 145 137 135 136 139 142 157 141 126 102 77
266 260 258 269 275 263 272 282 298 286 277 277 297 305 300 292 291 295 297 287 269 273 301 9 36 44 51 62 71 61 15 346 356 48 84 164 169 164 143 137 133 134 130 130 134 121 97 84 75
Height
1522 1522 1522 1523 1515 1501 1502 1502 1502 1504 1504 1508 1510 1512 1511 1512 1513 1520 1522 1523 1525 1528 1529 1531 1534 1537 1540 1543 1545 1547 1548 1550 1551 1553 1554 1555 1556 1558 1559 1560 1561 1562 1563 1563 1564 1564 1565 1565 1565
1523 1522 1523 1520 1505 1503 1507 1504 1504 1504 1508 1511 1512 1514 1513 1513 1518 1520 1520 1523 1526 1528 1529 1531 1534 1537 1540 1543 1545 1547 1549 1551 1552 1553 1554 1555 1556 1557 1558 1559 1560 1561 1562 1563 1564 1564 1564 1565 1565
1522 1522 1523 1510 1503 1506 1508 1505 1506 1509 1511 1512 1512 1514 1515 1516 1519 1519 1520 1523 1527 1529 1531 1532 1535 1538 1541 1543 1545 1547 1550 1552 1553 1554 1555 1556 1557 1557 1558 1559 1560 1561 1561 1562 1563 1564 1564 1564 1565
1525 1525 1520 1508 1504 1504 1505 1505 1508 1509 1511 1513 1513 1513 1516 1518 1519 1519 1520 1524 1528 1530 1532 1534 1536 1538 1541 1543 1546 1548 1550 1552 1554 1555 1555 1556 1556 1557 1558 1558 1559 1560 1561 1562 1562 1563 1563 1564 1564
1526 1522 1511 1505 1504 1504 1504 1507 1509 1508 1510 1512 1513 1512 1516 1518 1518 1520 1521 1525 1528 1531 1532 1534 1536 1539 1541 1544 1546 1548 1550 1552 1553 1554 1555 1556 1556 1557 1558 1559 1559 1560 1561 1561 1561 1562 1562 1563 1563
1525 1517 1510 1507 1507 1506 1505 1508 1508 1508 1509 1512 1513 1513 1516 1518 1520 1521 1523 1526 1529 1531 1533 1534 1536 1539 1542 1545 1547 1549 1550 1552 1553 1554 1555 1556 1557 1558 1558 1559 1559 1560 1560 1560 1560 1561 1561 1561 1561
1524 1514 1508 1507 1509 1507 1508 1508 1508 1507 1509 1510 1512 1513 1515 1519 1521 1522 1524 1526 1529 1532 1534 1535 1536 1539 1542 1544 1546 1548 1550 1551 1553 1554 1555 1555 1556 1557 1558 1558 1559 1559 1559 1559 1559 1559 1559 1560 1559
1524 1516 1508 1506 1508 1508 1509 1508 1508 1507 1508 1511 1512 1512 1513 1518 1520 1522 1524 1526 1529 1532 1534 1536 1538 1540 1541 1543 1545 1548 1550 1551 1552 1554 1555 1555 1555 1556 1556 1557 1557 1558 1558 1558 1558 1557 1557 1557 1557
1525 1519 1509 1506 1507 1507 1509 1508 1507 1509 1509 1511 1511 1513 1514 1515 1517 1521 1523 1526 1528 1531 1534 1536 1539 1540 1542 1545 1546 1548 1549 1551 1552 1554 1554 1554 1555 1556 1555 1555 1555 1556 1556 1556 1556 1555 1555 1554 1554
1521 1515 1508 1511 1510 1508 1509 1508 1507 1507 1507 1508 1509 1511 1512 1513 1514 1517 1521 1524 1527 1530 1533 1535 1538 1540 1544 1547 1548 1548 1550 1551 1551 1554 1554 1554 1555 1555 1556 1554 1553 1553 1553 1553 1553 1553 1552 1552 1552
1518 1514 1512 1513 1512 1512 1509 1507 1506 1504 1501 1503 1506 1508 1510 1512 1512 1515 1519 1523 1526 1529 1533 1535 1537 1539 1542 1545 1548 1549 1550 1550 1550 1552 1552 1552 1553 1553 1553 1553 1552 1551 1550 1551 1551 1550 1550 1551 1551
1518 1517 1517 1514 1512 1511 1510 1507 1505 1504 1502 1503 1505 1507 1508 1509 1511 1515 1519 1523 1526 1529 1532 1534 1536 1538 1540 1544 1546 1547 1548 1547 1548 1549 1549 1551 1550 1550 1550 1550 1551 1550 1549 1548 1549 1548 1548 1548 1547
1518 1515 1515 1514 1512 1510 1509 1506 1506 1503 1503 1504 1504 1505 1506 1508 1512 1516 1520 1523 1526 1528 1530 1531 1533 1535 1537 1540 1542 1544 1545 1546 1547 1546 1546 1546 1547 1547 1547 1546 1545 1546 1547 1546 1545 1545 1544 1544 1544
1517 1516 1513 1511 1510 1509 1508 1504 1504 1502 1505 1505 1504 1505 1507 1510 1513 1515 1518 1520 1522 1524 1527 1529 1531 1533 1534 1536 1538 1540 1542 1542 1544 1544 1544 1543 1544 1544 1544 1542 1542 1542 1543 1543 1542 1542 1541 1540 1539
1518 1514 1508 1507 1507 1506 1507 1502 1502 1506 1505 1504 1505 1507 1509 1510 1512 1514 1515 1517 1519 1521 1524 1526 1529 1531 1532 1533 1534 1536 1537 1539 1539 1540 1539 1539 1540 1540 1539 1539 1539 1539 1539 1539 1538 1537 1537 1536 1536
1513 1510 1507 1504 1507 1506 1506 1500 1503 1506 1504 1504 1506 1508 1509 1510 1511 1513 1515 1516 1518 1520 1521 1523 1525 1527 1528 1529 1530 1532 1533 1535 1535 1536 1537 1537 1537 1538 1537 1537 1536 1536 1535 1535 1534 1533 1534 1533 1532
1509 1508 1508 1506 1507 1505 1503 1501 1506 1507 1504 1505 1507 1508 1509 1510 1511 1512 1514 1515 1517 1518 1519 1520 1521 1522 1523 1524 1525 1526 1527 1528 1530 1531 1532 1533 1533 1534 1535 1534 1533 1532 1531 1531 1531 1531 1529 1528 1527
1510 1508 1509 1507 1507 1506 1505 1506 1509 1509 1507 1506 1507 1508 1510 1510 1511 1511 1512 1513 1514 1516 1516 1517 1517 1517 1517 1518 1518 1519 1520 1522 1523 1524 1524 1525 1526 1528 1529 1529 1530 1529 1527 1525 1525 1524 1523 1523 1522
1512 1511 1510 1509 1509 1507 1506 1507 1508 1509 1507 1508 1508 1509 1510 1510 1510 1510 1511 1512 1513 1513 1514 1514 1514 1514 1513 1513 1512 1512 1512 1514 1516 1517 1517 1518 1518 1519 1521 1522 1524 1523 1522 1520 1519 1519 1519 1519 1519
1511 1513 1512 1508 1507 1507 1505 1502 1506 1509 1509 1508 1508 1509 1509 1509 1509 1510 1510 1510 1511 1511 1510 1510 1509 1509 1508 1507 1505 1503 1503 1504 1506 1508 1509 1510 1509 1509 1510 1511 1513 1515 1515 1514 1514 1513 1514 1515 1514
1513 1514 1514 1513 1506 1501 1502 1498 1500 1505 1507 1508 1508 1509 1509 1508 1509 1509 1509 1508 1508 1507 1507 1506 1504 1503 1501 1499 1498 1495 1494 1492 1493 1496 1498 1499 1498 1498 1498 1499 1501 1504 1507 1508 1509 1508 1508 1509 1508
1513 1512 1513 1511 1509 1503 1500 1505 1489 1495 1501 1506 1508 1508 1508 1508 1508 1508 1508 1507 1506 1505 1503 1501 1499 1497 1495 1493 1490 1488 1486 1484 1484 1486 1489 1490 1488 1487 1486 1486 1489 1495 1499 1501 1503 1504 1503 1502 1502
1512 1512 1511 1508 1507 1505 1496 1502 1489 1493 1497 1502 1505 1507 1507 1507 1507 1507 1506 1504 1502 1501 1498 1495 1492 1489 1487 1485 1482 1480 1478 1478 1479 1481 1482 1481 1480 1480 1479 1478 1481 1486 1491 1495 1497 1498 1498 1497 1497
1512 1511 1506 1505 1501 1507 1497 1504 1495 1488 1494 1499 1503 1505 1506 1506 1506 1505 1504 1502 1499 1497 1494 1490 1487 1483 1479 1477 1475 1474 1474 1474 1476 1476 1475 1474 1474 1475 1476 1476 1478 1481 1486 1490 1492 1493 1493 1493 1492
1511 1514 1515 1510 1504 1499 1498 1504 1494 1494 1496 1499 1501 1503 1503 1504 1504 1503 1501 1499 1496 1493 1490 1486 1482 1478 1475 1472 1470 1469 1469 1469 1470 1470 1470 1470 1470 1471 1473 1474 1476 1479 1483 1486 1488 1489 1489 1489 1489
1514 1516 1525 1531 1519 1506 1497 1500 1490 1494 1497 1499 1500 1500 1500 1500 1500 1500 1498 1495 1493 1490 1487 1483 1478 1473 1470 1468 1466 1464 1464 1463 1463 1464 1465 1466 1467 1468 1470 1473 1475 1477 1480 1483 1484 1485 1485 1486 1486
1512 1512 1513 1518 1514 1515 1500 1494 1490 1492 1495 1496 1497 1497 1496 1496 1496 1496 1494 1492 1489 1486 1483 1478 1473 1468 1464 1462 1461 1461 1460 1459 1458 1460 1462 1464 1465 1467 1468 1471 1473 1475 1478 1479 1480 1481 1482 1483 1483
1512 1510 1515 1517 1523 1517 1502 1494 1491 1490 1490 1490 1491 1492 1492 1492 1492 1491 1490 1488 1485 1482 1479 1475 1469 1463 1459 1458 1458 1459 1459 1458 1459 1460 1462 1464 1465 1467 1468 1471 1473 1474 1476 1477 1478 1480 1480 1480 1480
1512 1513 1512 1511 1514 1520 1513 1497 1483 1487 1488 1488 1488 1487 1488 1488 1487 1487 1486 1484 1482 1480 1477 1473 1468 1463 1458 1456 1458 1459 1460 1461 1462 1463 1465 1466 1467 1469 1470 1471 1473 1474 1475 1476 1477 1479 1478 1479 1479
1505 1506 1508 1517 1514 1508 1509 1500 1480 1485 1485 1485 1484 1484 1484 1485 1484 1482 1481 1480 1479 1478 1476 1472 1468 1464 1460 1459 1459 1461 1463 1465 1466 1466 1467 1468 1469 1470 1471 1472 1473 1474 1475 1476 1478 1478 1478 1478 1478